GW3653 Weather Reports


Display with metric or nautical units.
time (UTC)temp
F
wind
direction
speed
MPH
gust
MPH
rain 1hr
in
rain 24hr
in
rain mn
in
humidity
%
barometer
mb
20260901085539 59 0.0 2.0 0.00 0.10 0.01 74 1021.9
20260901084519 59 0.0 2.0 0.00 0.10 0.01 73 1022.0
20260901083519 60 0.0 1.0 0.00 0.10 0.01 73 1021.9
20260901082519 60 0.0 2.0 0.00 0.11 0.01 74 1022.0
20260901081519 60 0.0 3.0 0.00 0.11 0.01 74 1022.0
20260901080519 60 0.0 2.0 0.00 0.11 0.01 74 1022.0
20260901075519 59 0.0 3.0 0.00 0.11 0.01 74 1022.0
20260901074519 60 248 1.0 6.0 0.00 0.11 0.01 74 1022.1
20260901073539 60 248 1.0 6.0 0.00 0.11 0.01 73 1021.9
20260901072519 61 248 1.0 10.0 0.00 0.11 0.01 72 1021.8
20260901071519 61 225 1.0 6.0 0.00 0.11 0.01 73 1021.8
20260901070519 61 248 1.0 5.0 0.00 0.11 0.01 73 1021.8
20260901065519 60 225 1.0 10.0 0.00 0.11 0.01 73 1021.8
20260901064518 60 225 1.0 5.0 0.00 0.11 0.01 73 1021.9
20260901063559 61 248 2.0 9.0 0.00 0.11 0.01 69 1021.9
20260901062539 61 248 1.0 10.0 0.00 0.11 0.01 70 1021.9
20260901061518 61 248 1.0 5.0 0.00 0.11 0.01 69 1021.9
20260901060518 61 248 1.0 7.0 0.00 0.11 0.01 70 1022.0
20260901055518 60 248 3.0 11.0 0.00 0.11 0.01 68 1022.2
20260901054518 60 248 1.0 10.0 0.00 0.11 0.01 68 1022.3
20260901053519 61 225 1.0 9.0 0.00 0.11 0.01 69 1022.4
20260901052518 61 225 4.0 11.0 0.00 0.11 0.01 67 1022.4
20260901051519 61 248 1.0 8.0 0.00 0.11 0.01 66 1022.5
20260901050538 61 248 3.0 9.0 0.00 0.11 0.01 65 1022.6
20260901045520 61 225 3.0 10.0 0.00 0.11 0.01 66 1022.7
20260901044518 61 248 1.0 7.0 0.00 0.11 0.01 67 1022.6
20260901043519 61 248 3.0 11.0 0.00 0.11 0.01 65 1022.7
20260901042518 61 225 4.0 11.0 0.00 0.11 0.01 62 1022.7
20260901041519 61 225 2.0 9.0 0.00 0.11 0.01 66 1022.8
20260901040519 60 248 2.0 8.0 0.00 0.11 0.01 66 1023.1
20260901035538 60 248 1.0 7.0 0.00 0.11 0.01 68 1023.0
20260901034518 59 248 2.0 10.0 0.00 0.11 0.01 70 1023.1
20260901033518 59 248 2.0 10.0 0.00 0.11 0.01 70 1023.2
20260901032538 60 293 1.0 7.0 0.00 0.11 0.01 71 1023.3
20260901031518 60 0.0 5.0 0.00 0.11 0.01 69 1023.5
20260901030518 59 270 3.0 13.0 0.00 0.11 0.01 70 1023.5
20260901025518 59 248 1.0 6.0 0.00 0.11 0.01 72 1023.5
20260901024518 58 225 1.0 7.0 0.00 0.11 0.01 74 1023.5
20260901023519 57 0.0 3.0 0.00 0.11 0.01 77 1023.4
20260901022518 56 0.0 2.0 0.00 0.11 0.01 81 1023.6
20260901021518 56 248 1.0 6.0 0.00 0.11 0.01 82 1023.7
20260901020518 55 248 2.0 8.0 0.00 0.11 0.01 83 1023.7
20260901015558 55 270 1.0 9.0 0.00 0.11 0.01 85 1023.7
20260901014518 54 293 1.0 4.0 0.00 0.11 0.01 89 1023.7
20260901013519 53 0.0 4.0 0.00 0.11 0.01 94 1023.6
20260901012518 52 0.0 4.0 0.00 0.11 0.01 95 1023.8
20260901011538 52 270 1.0 5.0 0.00 0.11 0.01 95 1023.8
20260901010539 51 0.0 1.0 0.00 0.11 0.01 95 1023.8
20260901005518 50 0.0 3.0 0.00 0.11 0.01 95 1023.9
20260901004518 50 0.0 1.0 0.00 0.11 0.01 95 1023.9
20260901003518 50 0.0 2.0 0.00 0.11 0.01 95 1023.9
20260901002518 49 0.0 1.0 0.00 0.11 0.01 95 1023.9
20260901001518 49 0.0 1.0 0.01 0.11 0.01 95 1023.9
20260901000518 49 0.0 3.0 0.01 0.11 0.01 95 1023.8
20260831235518 48 0.0 4.0 0.01 0.11 0.01 95 1023.7
20260831234538 48 0.0 0.0 0.01 0.11 0.01 95 1023.6
20260831233518 48 0.0 1.0 0.01 0.11 0.01 95 1023.6
20260831232518 47 0.0 0.0 0.01 0.11 0.01 95 1023.6
20260831231518 47 0.0 0.0 0.00 0.10 0.00 95 1023.5
20260831230518 47 0.0 1.0 0.00 0.10 0.00 95 1023.4
20260831225518 47 0.0 1.0 0.00 0.10 0.00 95 1023.3
20260831224518 47 0.0 0.0 0.00 0.10 0.00 95 1023.2
20260831223517 47 0.0 0.0 0.00 0.10 0.00 95 1023.0
20260831222518 47 0.0 0.0 0.00 0.10 0.00 95 1022.9
20260831221518 47 0.0 0.0 0.00 0.10 0.00 95 1022.9
20260831220518 47 0.0 1.0 0.00 0.10 0.00 95 1022.8
20260831215517 47 0.0 0.0 0.00 0.10 0.00 95 1022.7
20260831214537 47 0.0 0.0 0.00 0.10 0.00 95 1022.6
20260831213518 47 0.0 0.0 0.00 0.10 0.00 95 1022.5
20260831212517 47 0.0 0.0 0.00 0.10 0.00 95 1022.4
20260831211538 47 0.0 0.0 0.00 0.10 0.00 95 1022.4
20260831210518 47 0.0 0.0 0.00 0.11 0.00 95 1022.3
20260831205517 47 0.0 0.0 0.00 0.11 0.00 95 1022.2
20260831204518 48 0.0 0.0 0.00 0.11 0.00 95 1022.2
20260831203518 48 0.0 0.0 0.00 0.11 0.00 95 1022.2
20260831202517 48 0.0 1.0 0.00 0.11 0.00 95 1022.1
20260831201538 48 0.0 0.0 0.00 0.11 0.00 95 1022.1
20260831200517 48 0.0 1.0 0.00 0.11 0.00 95 1022.0
20260831195517 47 0.0 1.0 0.00 0.11 0.00 95 1022.0
20260831194517 47 0.0 0.0 0.00 0.11 0.00 95 1021.9
20260831193537 47 0.0 1.0 0.00 0.11 0.00 95 1021.8
20260831192557 47 0.0 1.0 0.00 0.11 0.00 95 1021.9
20260831191517 47 0.0 2.0 0.00 0.11 0.00 95 1021.7
20260831190518 48 0.0 1.0 0.00 0.11 0.00 95 1021.9
20260831185517 47 0.0 1.0 0.00 0.11 0.00 95 1021.8
20260831184517 47 0.0 0.0 0.00 0.11 0.00 95 1021.8
20260831183518 47 0.0 0.0 0.00 0.11 0.00 95 1021.8
20260831182517 47 0.0 0.0 0.00 0.11 0.00 95 1021.9
20260831181517 47 0.0 0.0 0.00 0.11 0.00 95 1022.0
20260831180520 48 0.0 0.0 0.00 0.11 0.00 95 1022.0
20260831174519 48 0.0 0.0 0.00 0.11 0.00 95 1022.0
20260831173548 48 0.0 0.0 0.00 0.11 0.00 95 1022.0
20260831172523 48 0.0 1.0 0.00 0.11 0.00 95 1022.0
20260831171801 48 0.0 3.0 0.00 0.11 0.00 95 1022.0
20260831170545 48 0.0 0.0 0.00 0.11 0.00 95 1022.1
20260831165518 48 0.0 1.0 0.00 0.11 0.00 94 1022.0
20260831164519 49 0.0 1.0 0.00 0.11 0.00 94 1022.0
20260831163519 49 0.0 0.0 0.00 0.11 0.00 95 1022.0
20260831162539 49 0.0 1.0 0.00 0.11 0.00 94 1021.9
20260831161519 49 0.0 0.0 0.00 0.11 0.00 94 1021.9
20260831160520 49 0.0 0.0 0.00 0.11 0.00 94 1022.0
20260831155517 49 0.0 0.0 0.00 0.11 0.11 94 1022.0
20260831154537 50 0.0 0.0 0.00 0.11 0.11 94 1022.0
20260831153519 50 0.0 0.0 0.00 0.11 0.11 94 1022.1
20260831152517 50 0.0 0.0 0.00 0.11 0.11 94 1022.2
20260831151517 50 0.0 1.0 0.01 0.11 0.11 94 1022.2
20260831150642 50 0.0 0.0 0.01 0.11 0.11 94 1022.1
20260831145517 50 0.0 0.0 0.01 0.11 0.11 94 1022.2
20260831144517 50 0.0 0.0 0.02 0.11 0.11 94 1022.2
20260831143518 50 0.0 0.0 0.02 0.11 0.11 94 1022.2
20260831142517 50 0.0 0.0 0.02 0.11 0.11 94 1022.1
20260831141519 50 0.0 0.0 0.02 0.10 0.10 94 1022.1
20260831140520 50 0.0 0.0 0.02 0.10 0.10 94 1022.0
20260831135540 50 0.0 0.0 0.02 0.10 0.10 94 1022.2
20260831134520 50 0.0 0.0 0.02 0.09 0.09 94 1022.1
20260831133520 50 0.0 0.0 0.02 0.09 0.09 94 1021.9
20260831132539 50 0.0 0.0 0.02 0.09 0.09 94 1021.7
20260831131519 50 0.0 1.0 0.01 0.09 0.09 94 1021.9
20260831130520 50 248 1.0 6.0 0.01 0.09 0.09 94 1021.8
20260831125519 50 0.0 0.0 0.00 0.08 0.08 94 1021.8
20260831124519 50 0.0 2.0 0.00 0.08 0.08 94 1021.8
20260831123520 50 0.0 1.0 0.00 0.08 0.08 94 1021.8
20260831122519 50 0.0 1.0 0.01 0.08 0.08 94 1021.5
20260831121539 50 0.0 2.0 0.01 0.08 0.08 94 1021.3
20260831120539 50 0.0 2.0 0.02 0.08 0.08 94 1021.2
20260831115539 50 0.0 1.0 0.02 0.08 0.08 94 1021.2
20260831114539 50 0.0 2.0 0.04 0.08 0.08 94 1021.1
20260831113519 50 0.0 0.0 0.04 0.08 0.08 94 1020.9
20260831112518 50 225 1.0 4.0 0.04 0.07 0.07 93 1020.8
20260831111519 49 225 1.0 6.0 0.04 0.07 0.07 93 1020.9
20260831110520 50 225 1.0 8.0 0.03 0.06 0.06 93 1020.9
20260831105519 51 225 3.0 11.0 0.02 0.06 0.06 93 1020.9
20260831104518 51 225 4.0 20.0 0.02 0.04 0.04 93 1020.7
20260831103519 51 225 4.0 13.0 0.02 0.04 0.04 93 1020.3
20260831102519 52 225 2.0 9.0 0.02 0.03 0.03 93 1020.0
20260831101519 52 225 3.0 14.0 0.02 0.03 0.03 93 1019.8
20260831100520 52 248 3.0 12.0 0.02 0.03 0.03 93 1019.5
20260831095519 52 225 3.0 11.0 0.02 0.03 0.03 93 1019.3
20260831094538 52 225 2.0 8.0 0.01 0.02 0.02 93 1019.1
20260831093519 53 225 3.0 11.0 0.01 0.02 0.02 92 1018.8
20260831092518 53 225 4.0 11.0 0.01 0.02 0.02 92 1018.7
20260831091518 53 225 3.0 13.0 0.01 0.02 0.02 92 1018.4
20260831090520 54 225 3.0 15.0 0.01 0.02 0.02 92 1018.2